User: anonymous
Location: Caltech
(34.1382°N, 118.1253°W)
Time: 17:28:33
(UTC-07:00)
Language:

Iridium 62 - Orbit

View from above orbital plane
View from above orbital plane
View from above satellite
View from above satellite

Ground track
Ground track

The orbit data is extracted from the following two-line orbital elements,

1 25285U 98021A   14292.47778701  .00000388  00000-0  13144-3 0  9749
2 25285 086.3934 270.0534 0002134 101.1022 259.0414 14.34219464865748
Epoch (UTC): 19 October 2014 11:28:00
Eccentricity: 0.0002134
inclination: 86.3934°
perigee height: 776 km
apogee height: 779 km
right ascension of ascending node: 270.0534°
argument of perigee: 101.1022°
revolutions per day: 14.34219464
mean anomaly at epoch: 259.0414°
orbit number at epoch: 86574

The dashed part of the orbit path shows where the satellite is in the earth's shadow,  

DLR